GFSCGP_925_rhum_012.txt.gz
RH
29 30 27 23 23 23 23 26 33 31 27 35 37 42 35 27 28 27 25 29 34 34 34 33 29 26 26 28 33 29 25 25 25 24 25 24 24 25 26 26 26 26 27 28
30 26 21 26 26 25 24 30 31 33 32 36 39 37 26 28 28 33 36 38 34 34 34 33 32 31 30 29 27 24 23 24 24 25 27 28 28 28 27 27 27 28 28 28
31 22 24 25 30 35 33 28 30 35 38 36 40 31 32 22 27 30 32 30 31 33 32 31 30 27 26 25 24 25 25 27 28 30 30 31 33 34 34 33 34 33 34 35
26 21 26 32 29 31 38 27 32 40 46 47 39 43 36 35 25 32 30 29 26 29 32 33 31 28 27 27 27 28 31 34 38 39 38 40 42 44 38 40 40 40 38 38
24 23 30 35 30 30 39 39 44 42 50 47 46 45 35 35 27 28 30 30 30 33 33 29 28 30 36 35 39 41 40 40 42 40 40 39 38 37 38 38 39 32 31 32
38 26 27 28 28 34 38 46 45 54 55 63 49 47 43 40 34 33 33 31 32 34 35 34 37 44 45 42 42 42 40 39 39 39 40 38 37 39 39 36 36 37 36 38
50 41 41 33 40 39 48 56 65 63 74 70 51 49 42 36 32 30 29 30 36 40 45 45 57 54 48 46 44 44 45 46 48 50 43 45 47 47 41 40 41 41 41 46
68 51 45 39 37 41 46 56 78 58 86 81 58 51 47 31 38 37 34 38 52 60 64 65 60 54 50 48 47 50 53 54 52 54 48 52 54 52 45 40 43 42 48 57
80 56 47 42 45 39 45 66 53 78 96 89 73 56 43 43 53 48 49 55 57 57 60 61 57 54 50 48 49 51 54 56 55 58 54 58 60 54 48 43 43 48 56 64
56 70 48 47 40 43 47 47 66 85 90 88 74 70 60 55 57 52 57 55 55 56 60 60 54 51 51 51 55 56 57 60 59 60 56 62 62 52 52 52 46 57 63 65
50 60 48 46 52 55 59 68 67 70 85 95 98 80 58 55 53 54 55 60 61 56 55 61 58 55 56 54 55 60 54 56 59 58 63 65 58 60 60 54 52 58 61 57
56 70 75 49 43 52 53 57 64 84 74 90 94 80 49 53 51 56 58 62 62 60 59 62 60 61 60 55 57 62 57 61 66 64 65 61 65 66 56 52 58 61 52 45
50 71 75 47 46 48 59 59 67 77 84 82 92 72 47 49 50 55 61 66 68 67 66 65 63 64 61 58 59 65 64 68 67 66 67 74 69 52 52 54 57 60 61 60
58 69 61 74 55 57 68 68 67 72 91 77 81 66 55 53 60 65 71 72 73 71 67 65 71 68 62 60 65 72 70 70 69 71 79 72 56 52 59 67 77 76 73 79
62 73 73 70 67 70 71 77 75 86 80 89 68 77 66 63 66 72 72 73 69 67 70 73 79 71 65 69 76 72 71 71 72 78 82 78 76 82 89 87 84 82 81 96
75 81 81 86 84 87 94 83 82 84 83 86 82 87 62 56 71 78 74 74 77 77 80 80 76 68 72 72 75 73 72 71 79 86 89 90 92 94 96 94 70 72 70 79
74 91 96 86 90 90 72 55 73 68 70 68 70 57 56 72 76 70 69 82 82 88 77 68 59 59 74 75 73 73 74 76 86 78 77 65 64 65 59 61 58 54 46 45
98 94 96 96 87 90 53 53 52 64 62 59 64 65 69 75 71 73 77 84 88 83 75 68 61 79 69 69 75 74 57 62 71 68 73 70 67 62 57 50 47 47 46 46
81 97 98 98 86 78 59 48 51 58 64 54 64 70 69 66 76 74 85 83 82 83 76 72 76 71 71 75 60 48 51 57 64 69 71 65 48 48 49 52 52 51 52 54
91 90 92 98 96 97 65 47 47 62 87 63 66 61 66 76 94 83 86 86 78 57 69 76 68 67 74 77 70 57 69 70 62 58 53 53 53 54 58 58 57 58 62 66
97 97 99 99 98 89 65 58 53 83 71 58 60 68 78 88 96 88 78 67 50 59 69 65 68 75 81 74 59 59 51 56 57 52 51 49 52 62 65 63 63 66 66 68
69 79 93 98 98 95 57 60 68 60 63 64 72 77 93 93 90 82 73 63 56 70 65 59 75 79 78 74 58 53 52 60 60 55 50 48 56 65 63 67 63 66 72 71
84 74 79 78 83 62 51 60 58 64 74 77 86 91 93 92 85 75 74 63 62 72 65 65 78 84 79 84 72 84 75 81 60 57 52 56 59 62 64 70 66 70 77 83
77 74 87 75 67 72 69 61 65 76 84 88 92 94 86 84 77 80 76 64 69 68 67 68 79 86 77 62 73 64 57 58 59 59 60 63 67 70 72 79 71 73 81 86
89 81 90 90 74 76 72 74 90 95 91 91 91 82 77 75 80 80 74 76 75 73 69 68 82 85 74 68 58 60 56 60 61 64 66 72 79 81 85 89 79 81 84 83
86 85 95 83 66 76 84 94 92 89 90 86 83 75 73 77 82 75 83 76 76 77 73 79 86 80 73 72 54 57 61 63 66 68 73 82 77 78 89 90 88 82 84 78

GFSCGP_925_rhum_015.txt.gz
RH
29 24 26 26 25 24 24 26 30 28 28 31 34 33 24 24 25 25 25 26 26 26 32 31 26 25 28 33 36 36 34 32 35 38 31 29 27 28 27 28 30 32 33 32
26 28 23 26 26 25 26 29 27 29 30 34 34 28 26 26 30 32 31 30 30 29 30 34 34 31 31 29 34 39 33 31 31 30 31 32 33 33 34 35 35 34 34 35
31 23 25 24 32 34 34 30 32 33 34 34 33 27 28 23 25 27 28 29 28 28 28 30 31 37 33 34 33 32 32 33 36 39 40 39 39 41 42 42 38 32 33 32
26 24 29 34 33 34 38 31 38 40 41 37 38 31 30 30 25 27 26 27 27 28 28 30 32 37 44 37 40 42 43 43 43 42 41 39 48 48 47 51 46 36 34 38
25 28 34 37 32 33 38 42 44 43 46 42 39 33 32 31 29 28 30 30 29 31 32 36 46 52 54 47 46 45 43 43 45 45 42 44 50 55 55 53 45 38 36 38
39 32 32 33 31 35 39 43 41 47 47 50 47 40 43 37 34 32 29 30 34 35 37 39 53 52 53 46 43 43 43 45 45 41 43 46 51 53 59 57 53 48 51 50
44 40 39 36 37 37 42 44 46 54 60 54 48 43 44 41 39 36 36 36 46 51 50 50 50 50 51 48 44 45 44 50 50 50 50 51 52 58 62 60 54 57 57 62
57 43 43 42 40 42 48 49 62 54 63 60 53 49 48 40 40 40 44 48 49 53 54 52 52 53 54 56 53 57 57 59 51 45 43 51 58 62 62 59 62 67 66 67
65 49 45 46 45 41 46 59 52 71 89 78 56 49 42 43 41 45 45 45 49 51 52 49 50 54 56 58 58 56 56 46 46 51 57 55 62 62 63 60 60 59 56 72
58 59 46 44 41 43 44 46 56 68 75 69 53 59 44 48 47 47 48 52 52 48 47 45 47 52 58 58 53 52 56 55 55 61 61 64 68 69 69 65 56 58 69 89
51 55 44 45 51 54 52 55 62 61 74 82 92 57 49 48 48 46 47 55 54 52 48 45 48 52 59 60 62 59 64 69 70 69 68 65 61 63 58 54 55 64 81 78
56 64 56 45 48 50 52 54 54 61 63 76 83 60 42 47 48 48 49 56 54 54 51 51 54 57 63 64 62 66 75 76 74 70 66 70 71 56 50 58 66 68 66 62
52 65 58 36 43 44 56 57 64 69 76 74 82 55 44 46 41 47 51 55 54 55 53 53 56 60 62 59 63 66 76 77 70 76 82 75 65 57 61 81 83 84 84 86
59 65 56 52 39 50 62 63 64 66 85 67 67 53 44 44 48 51 56 58 54 57 58 58 60 61 62 57 68 78 76 65 72 82 86 77 73 66 75 97 94 93 94 94
62 74 69 64 60 66 66 66 67 72 68 80 60 57 51 49 57 56 56 57 58 56 62 67 62 58 59 69 72 71 70 76 85 90 92 94 97 99 99 97 84 74 73 74
72 74 81 86 77 74 83 68 72 73 70 72 69 71 51 55 62 61 57 58 62 71 73 61 54 52 60 74 70 72 76 86 86 90 88 79 80 78 69 68 74 81 77 56
76 86 92 74 80 78 74 52 68 60 60 61 66 46 59 60 63 57 57 64 80 77 69 60 52 60 74 69 69 76 78 66 72 75 70 73 76 74 66 60 55 54 54 54
98 94 94 94 84 74 47 50 50 56 54 57 56 56 58 56 55 59 74 81 84 76 69 56 57 73 71 67 79 64 56 60 64 69 74 77 65 58 57 58 59 59 58 60
77 97 98 96 82 72 54 46 52 61 54 49 58 59 56 54 61 64 82 79 78 78 67 53 70 75 67 76 78 54 55 60 66 69 60 58 61 59 61 62 62 62 63 65
86 86 90 96 97 93 63 47 50 60 68 58 62 66 68 66 96 76 85 84 66 60 52 63 72 69 71 77 82 75 62 68 61 60 61 63 53 64 65 67 66 67 68 68
98 98 95 90 92 82 61 56 54 84 78 64 67 64 70 81 95 92 85 71 60 56 56 68 68 69 71 80 82 71 60 54 58 66 58 50 52 64 70 67 69 67 68 81
67 80 90 96 97 93 53 57 68 65 66 62 67 72 87 93 91 84 75 67 57 59 61 69 68 69 72 82 75 57 59 64 71 79 56 56 59 63 62 69 70 71 74 83
81 71 76 76 78 60 53 57 56 64 77 82 86 91 93 93 83 66 69 62 64 64 67 71 71 74 79 72 72 66 68 79 82 70 63 66 64 69 74 76 80 76 77 84
73 69 85 78 66 59 62 57 79 82 93 91 87 87 82 84 72 67 66 66 66 66 71 73 75 74 81 76 70 77 72 69 60 66 68 70 75 79 81 84 87 80 84 86
74 83 87 87 70 67 66 78 90 94 91 88 81 80 77 72 68 69 70 69 71 75 76 80 80 82 87 84 80 73 59 62 66 72 74 78 84 84 84 86 84 86 95 94
84 84 92 85 64 77 90 96 93 89 80 73 80 68 59 68 72 74 67 73 79 81 82 83 81 79 68 68 61 60 63 68 73 76 79 87 87 92 85 79 81 87 85 84

GFSCGP_925_rhum_021.txt.gz
RH
12 13 14 12 12 12 10 12 12 11 13 15 13 13 13 14 13 14 13 13 13 14 22 24 27 28 31 39 40 43 46 50 41 36 32 29 30 30 31 32 40 45 45 48
11 16 15 14 14 14 14 15 15 15 15 17 15 14 14 14 17 15 16 17 19 21 21 25 30 34 36 36 36 35 35 36 34 29 34 38 40 36 38 40 42 41 42 43
15 16 15 17 17 18 17 19 22 21 17 16 17 17 16 16 16 16 17 17 17 19 20 22 28 33 37 38 35 34 36 39 43 41 34 35 34 34 33 34 38 38 44 46
16 17 18 18 21 21 21 21 24 23 21 19 17 21 18 17 19 18 19 20 20 20 21 24 28 33 40 42 41 39 39 39 42 47 39 44 39 39 39 43 42 49 51 45
20 19 21 22 24 22 23 25 25 25 24 19 18 17 22 16 20 21 22 23 24 24 25 27 30 35 40 45 46 44 39 41 44 47 47 46 44 44 45 47 46 44 36 36
20 18 20 24 22 22 23 26 24 26 24 31 23 22 23 21 22 23 25 28 28 28 27 28 31 31 36 42 44 42 39 37 40 46 49 50 51 50 44 42 42 38 40 39
21 23 22 23 24 23 22 25 35 41 38 36 25 22 32 26 25 26 28 30 30 30 30 28 29 30 34 38 40 42 39 40 40 42 44 45 44 46 45 45 43 48 45 42
25 36 25 24 28 30 27 29 46 44 39 30 26 23 28 25 25 26 26 26 27 29 30 29 31 33 34 37 40 45 46 43 40 42 45 47 51 49 51 49 54 51 47 47
29 31 25 27 26 26 29 36 29 45 57 51 22 25 28 26 28 27 27 27 30 29 30 28 29 31 34 37 38 43 46 43 42 45 49 53 51 53 53 56 52 49 51 52
29 36 25 25 26 28 29 28 41 36 60 40 19 19 22 34 30 27 26 26 28 28 29 29 30 33 35 36 40 42 42 41 46 48 49 50 54 54 55 51 51 52 55 56
24 29 29 23 29 27 29 33 33 28 37 45 38 25 23 24 25 27 25 28 30 30 31 28 30 34 36 39 40 38 39 44 46 46 47 48 48 52 52 50 51 54 56 55
32 32 34 22 26 29 28 30 30 41 34 39 52 41 22 22 25 27 27 29 30 32 30 30 32 37 39 40 39 39 42 42 44 43 41 44 46 49 49 51 62 64 63 66
34 38 35 26 32 32 32 29 30 34 46 45 67 44 22 22 24 23 26 32 31 31 30 33 36 36 36 38 38 38 42 43 43 40 40 42 45 60 68 69 84 75 67 64
46 34 34 37 27 23 28 26 23 29 51 49 43 32 24 22 26 26 27 30 31 33 34 36 36 37 39 38 34 40 41 41 39 41 43 43 58 65 64 71 65 57 53 49
38 46 34 32 26 24 26 28 28 30 30 46 40 33 27 27 29 32 32 32 33 34 36 38 41 40 36 31 36 40 39 38 38 43 43 44 51 53 56 56 54 48 44 39
38 51 56 48 30 27 34 28 27 28 32 32 32 34 26 28 27 33 34 39 43 40 43 50 43 35 30 32 37 39 38 38 39 42 43 43 48 55 59 50 48 39 36 36
49 57 55 65 48 57 79 41 30 29 30 34 43 33 26 32 36 46 47 47 46 52 61 57 36 32 31 35 38 36 36 35 34 39 40 45 54 52 52 45 36 35 37 39
71 63 82 91 88 87 39 26 27 31 30 28 28 28 31 38 44 41 49 58 58 65 58 42 33 31 31 32 37 34 34 35 35 34 41 51 52 54 48 37 35 37 38 41
45 67 86 91 62 44 38 35 36 41 43 30 35 37 39 43 49 42 60 60 52 52 43 35 33 29 28 32 36 34 35 35 32 32 35 42 52 51 42 36 39 41 42 43
55 66 76 86 95 79 42 32 34 36 54 42 46 47 51 53 83 66 75 61 51 41 34 31 30 29 29 29 32 34 34 35 34 31 35 39 46 47 42 39 42 42 42 42
92 90 94 84 88 59 34 36 37 63 66 51 53 68 76 90 81 71 64 45 38 34 32 30 30 30 30 31 32 33 32 33 33 34 38 42 55 61 43 44 44 42 43 48
72 91 96 84 88 88 34 38 74 58 57 62 67 78 85 69 59 48 40 35 31 28 26 28 31 32 34 33 32 32 30 34 43 50 54 77 99 78 50 48 45 45 48 52
49 47 55 56 56 33 35 40 46 51 59 65 72 72 63 50 41 38 34 28 26 25 26 29 31 32 32 32 32 34 36 46 55 62 75 89 73 63 53 56 51 49 48 62
40 32 57 60 40 38 43 48 62 59 64 68 69 50 42 42 35 31 27 23 22 22 24 27 30 31 32 32 32 36 43 60 62 65 65 75 74 66 57 53 46 47 59 75
48 45 55 60 45 49 60 72 76 69 70 60 43 39 37 30 30 25 21 22 24 26 27 31 32 32 32 34 37 43 58 63 62 62 58 57 58 61 72 65 54 59 68 80
45 49 66 78 59 79 83 81 79 69 50 43 37 32 31 28 24 24 27 28 29 31 32 31 30 31 36 39 49 59 66 72 75 71 62 60 67 67 78 68 66 70 82 83

GFSCGP_925_rhum_024.txt.gz
RH
11 14 15 13 11 10 10 10 10 10 12 13 11 11 12 12 12 14 13 13 16 26 26 30 29 32 36 38 44 44 50 45 40 38 34 31 34 34 33 35 39 44 43 46
10 14 14 11 11 12 12 14 14 13 13 14 13 14 13 14 16 15 16 17 25 25 28 31 36 36 35 34 33 34 36 39 38 37 35 37 38 38 38 36 40 38 40 44
19 16 13 13 14 16 14 16 22 20 16 14 15 16 16 16 16 18 19 19 20 23 26 30 36 40 40 38 36 36 38 40 45 36 37 39 37 36 37 38 39 43 48 48
16 14 15 16 17 19 19 21 22 20 20 21 15 22 18 18 19 20 20 22 22 22 24 28 34 41 43 43 40 39 39 39 43 46 45 46 47 47 48 48 48 46 45 42
18 17 19 19 23 20 21 22 22 22 23 21 17 22 21 18 22 23 24 25 26 27 28 30 34 40 45 47 46 43 38 38 42 46 48 51 52 53 50 46 45 45 45 46
18 15 19 22 20 19 19 24 22 22 25 43 21 20 31 20 22 25 27 28 29 29 29 29 30 35 43 41 42 42 39 39 40 42 44 46 47 48 48 50 49 53 54 50
20 21 21 19 23 21 21 25 48 61 52 52 25 26 32 23 23 25 30 31 31 31 32 30 30 31 33 37 39 42 44 44 41 42 44 47 50 53 53 54 58 59 55 52
25 37 23 21 25 27 26 25 60 56 62 47 23 23 34 25 25 26 26 27 28 30 30 29 29 30 32 35 37 39 43 44 42 45 53 52 52 54 57 58 55 53 54 55
26 31 22 23 22 22 27 37 24 38 58 60 23 32 26 25 27 26 27 26 29 29 30 29 29 30 32 34 36 40 42 40 41 46 49 51 54 52 55 54 52 53 53 55
25 35 21 20 21 26 23 22 41 52 64 47 23 22 39 32 31 28 26 26 28 28 30 30 28 31 35 38 40 41 39 40 43 45 46 46 46 47 51 52 51 52 59 59
23 26 27 20 27 23 26 28 30 26 42 54 52 31 22 25 26 28 26 26 30 31 31 31 31 36 37 40 42 40 39 41 42 44 42 41 42 44 48 54 60 72 74 67
27 29 49 22 20 22 23 27 28 63 48 57 59 44 22 22 25 26 28 29 30 29 31 33 34 36 37 38 40 39 38 41 43 42 39 39 42 58 64 65 63 67 78 66
34 40 52 32 31 29 24 24 26 35 56 59 69 45 21 21 33 26 28 27 29 33 32 33 35 37 38 39 38 35 39 40 40 37 38 40 43 58 56 58 62 66 60 55
45 32 34 45 29 23 25 22 22 25 66 56 53 37 26 24 31 30 30 31 31 33 32 35 39 41 42 38 33 34 37 39 37 36 38 40 42 56 56 58 59 59 53 47
37 45 35 32 24 23 24 26 25 28 29 44 39 30 26 30 30 31 40 39 40 39 40 44 48 46 40 33 31 33 39 36 37 36 38 40 40 49 54 59 58 53 47 38
36 58 61 54 26 26 33 29 30 27 25 26 32 33 24 26 37 41 40 39 41 51 51 48 48 42 34 32 32 36 37 34 35 35 35 37 44 52 53 53 52 45 37 38
48 67 68 74 57 62 83 51 28 28 26 30 45 34 25 41 44 45 47 49 56 55 54 50 45 37 32 32 30 30 34 34 35 36 36 36 55 54 51 50 49 37 39 39
71 66 89 90 90 81 34 24 25 31 28 28 28 28 39 44 42 37 52 60 60 53 47 44 37 32 31 28 27 30 34 38 38 39 47 37 52 52 51 52 45 38 41 42
43 73 93 98 68 48 36 34 39 42 44 33 40 45 46 46 46 42 55 56 56 49 42 35 31 31 30 30 31 31 31 30 30 33 53 67 54 46 55 50 43 41 43 43
49 69 84 86 93 76 45 32 32 34 60 48 52 59 61 58 85 75 54 54 40 34 30 29 28 27 31 31 32 32 31 30 31 46 55 57 48 49 52 62 68 44 45 46
91 84 96 79 78 67 36 34 35 61 75 63 62 66 67 75 73 58 46 39 31 28 25 23 24 26 28 30 30 30 29 28 33 44 53 62 79 93 86 94 56 51 49 51
82 91 95 77 87 85 34 37 77 66 59 63 64 66 68 60 54 41 34 30 26 23 21 20 22 25 27 28 29 29 30 33 40 55 62 65 79 94 90 71 60 54 51 57
56 64 69 67 69 49 46 54 61 63 65 70 70 61 55 49 39 34 31 27 21 22 22 24 25 27 28 28 30 32 34 45 56 57 62 68 86 94 90 96 68 49 53 68
35 30 70 60 43 36 53 63 62 62 66 62 62 48 40 41 33 32 26 22 24 26 26 27 28 28 30 29 32 39 50 57 61 66 66 65 65 69 67 67 62 56 63 72
52 42 50 57 44 46 69 70 71 61 62 58 41 37 34 32 31 26 25 25 27 28 29 30 30 31 34 35 42 51 57 64 73 73 72 68 73 70 73 70 64 65 70 74
49 50 70 76 62 61 72 72 66 61 54 42 34 33 31 27 26 27 29 28 28 30 30 31 33 36 41 48 57 60 64 73 77 82 80 84 84 88 83 77 67 72 78 84

GFSCGP_925_rhum_027.txt.gz
RH
18 24 25 16 14 12 12 16 20 18 15 14 15 15 19 20 19 18 37 38 41 45 42 44 40 39 38 37 38 39 40 36 35 35 34 34 36 35 34 40 41 40 44 46
20 25 16 12 13 16 16 19 27 18 16 16 17 18 21 22 27 31 34 38 40 44 46 48 43 39 37 36 38 39 39 38 36 37 40 40 39 37 42 47 49 51 48 45
25 17 12 15 24 24 26 29 26 24 21 18 19 22 25 24 25 24 29 33 36 43 49 48 48 42 40 39 38 39 40 41 37 38 39 39 40 44 46 48 46 46 45 46
22 16 18 18 26 25 31 28 26 26 28 34 21 36 28 28 29 30 33 39 40 40 44 48 50 47 45 44 42 40 40 40 41 44 48 49 51 51 49 48 47 49 50 50
21 21 28 29 26 22 28 23 26 27 32 32 32 35 31 28 35 36 39 38 42 43 46 50 49 47 47 45 43 40 40 43 44 45 46 47 48 47 49 53 54 55 54 53
22 20 24 25 22 21 21 29 33 33 37 61 41 39 38 32 35 40 40 40 40 41 41 43 44 46 45 44 43 43 43 44 43 45 47 49 52 55 55 56 56 56 53 51
23 27 24 21 29 24 28 40 73 71 84 69 50 48 52 41 34 39 43 45 44 42 44 43 42 44 46 40 43 43 45 45 44 47 50 51 54 56 57 57 54 52 51 49
42 42 29 24 28 30 33 33 77 62 83 69 34 48 46 38 37 39 39 40 41 40 38 39 36 36 38 39 39 40 43 44 47 48 51 55 51 54 54 54 51 49 50 54
46 38 26 26 24 28 30 45 26 53 63 79 47 40 38 35 35 33 35 39 41 41 37 36 38 39 39 40 43 42 40 41 46 48 46 46 45 45 46 50 51 61 63 63
28 41 23 25 22 28 28 25 54 69 64 59 46 51 66 43 38 35 33 38 41 42 39 43 43 40 39 39 41 41 40 43 44 43 42 40 40 45 54 58 63 65 65 64
36 43 32 21 30 32 37 39 38 41 65 75 79 52 36 45 41 42 41 41 42 39 46 47 42 39 38 40 43 40 41 43 43 42 39 38 42 47 55 59 48 50 56 66
31 46 56 34 26 24 25 32 39 76 56 79 83 62 26 44 40 39 36 35 39 42 42 41 41 43 42 41 39 40 40 41 41 38 37 38 41 46 48 53 46 43 62 62
42 45 73 49 42 35 26 26 38 59 71 60 72 58 30 37 41 35 35 45 44 42 44 51 50 49 46 41 37 35 36 40 37 37 37 37 39 44 46 54 55 61 60 56
50 40 51 68 38 30 28 28 27 52 85 72 72 52 36 51 47 52 52 50 50 51 55 54 56 51 45 40 33 33 39 40 40 37 38 36 38 41 50 55 58 59 56 51
49 56 51 47 35 31 28 31 33 35 40 55 50 45 38 50 54 53 50 52 59 58 58 58 57 50 46 38 33 32 34 32 35 37 39 38 41 42 54 56 58 56 53 42
52 75 54 50 46 46 42 44 46 40 35 36 38 41 46 50 50 56 60 62 64 61 59 57 54 49 46 34 30 27 28 36 37 37 40 43 49 50 51 57 54 56 44 39
68 76 82 81 73 79 76 51 38 32 33 34 48 46 55 57 58 71 74 71 70 67 61 55 50 45 36 32 30 32 32 31 31 35 50 58 62 68 76 77 89 54 42 41
71 80 96 90 83 57 52 33 34 40 42 41 50 59 58 61 67 72 69 69 69 67 60 52 43 37 31 33 34 32 32 31 30 43 46 63 68 72 78 88 70 60 44 43
63 87 96 94 94 62 47 40 45 48 59 64 67 68 66 59 52 71 60 59 61 62 47 39 31 29 30 30 31 31 30 29 32 45 56 62 68 70 67 76 80 90 70 50
74 81 86 91 92 84 60 42 37 37 79 70 75 80 79 71 88 82 67 55 55 42 28 24 24 24 27 29 28 29 30 30 35 52 60 62 65 77 86 85 81 81 57 54
96 91 96 94 89 80 58 42 37 65 74 76 74 78 80 84 85 74 66 45 30 27 24 25 25 28 28 27 28 29 32 38 50 55 58 62 73 76 93 100 89 65 60 67
84 94 96 85 82 91 48 50 60 72 77 78 72 76 72 69 67 56 39 37 30 26 26 27 27 28 28 28 31 35 45 54 55 59 63 65 66 77 90 95 99 76 65 65
74 80 90 78 80 59 55 59 72 74 80 75 71 68 67 69 46 38 38 32 28 28 28 29 31 31 32 35 38 50 55 59 62 64 70 68 68 67 68 82 83 66 66 70
49 54 78 71 57 62 79 76 73 72 70 66 69 68 45 42 39 39 34 32 32 32 33 31 33 35 37 40 51 58 61 62 69 74 74 76 79 83 86 90 66 66 71 76
65 59 58 70 55 79 75 75 76 78 71 67 60 39 37 38 36 36 38 34 34 33 35 37 39 42 45 58 67 71 66 66 74 77 75 79 78 82 86 78 73 74 78 79
66 64 80 84 66 67 88 85 73 73 69 51 41 40 34 33 37 34 35 35 40 42 42 44 47 52 58 68 72 75 81 78 80 84 84 77 76 85 90 88 76 77 72 78

GFSCGP_925_rhum_030.txt.gz
RH
22 24 22 18 16 15 14 21 23 18 15 14 20 23 23 32 47 52 54 55 56 57 54 53 46 43 45 49 53 48 49 47 46 42 41 40 48 50 52 51 49 47 46 45
25 24 17 16 22 26 22 27 25 20 19 16 23 27 33 36 45 49 52 55 58 58 54 53 48 45 47 47 46 44 39 38 41 42 44 44 48 48 48 47 47 47 46 45
28 18 14 24 27 27 35 32 28 24 23 21 26 28 37 35 39 42 47 52 54 57 62 57 54 48 42 42 42 41 40 40 40 40 40 41 41 42 46 51 50 50 50 50
20 17 22 28 28 26 37 27 26 26 30 28 23 41 30 38 42 42 47 55 58 57 57 56 53 47 43 41 40 41 42 43 43 44 44 45 47 48 50 49 51 52 52 52
24 29 31 31 26 23 30 23 27 27 33 36 35 41 33 40 47 48 50 52 57 60 59 62 54 46 42 40 40 42 42 44 45 46 48 50 50 55 58 56 55 55 53 50
23 23 25 25 24 22 22 28 43 40 45 61 43 43 43 46 45 48 46 49 52 57 59 57 50 46 45 45 44 43 46 46 45 46 50 53 56 57 56 56 54 51 48 47
30 30 26 24 32 29 32 50 71 68 77 69 49 56 53 42 42 43 52 52 50 51 55 60 56 51 51 48 47 46 47 50 50 49 50 52 54 54 53 52 50 50 52 56
45 46 31 27 28 30 31 46 74 57 76 65 44 58 57 47 42 44 42 45 45 46 48 52 49 50 49 46 44 45 46 48 48 51 52 49 49 45 47 53 54 61 62 64
47 39 28 25 25 28 32 45 36 65 69 75 57 48 40 42 43 41 44 46 47 43 49 53 48 45 45 44 44 42 44 47 48 47 44 41 42 44 46 51 58 60 57 48
32 41 28 26 25 29 28 29 54 70 60 59 52 55 61 55 50 46 44 44 46 49 53 54 48 47 48 49 45 44 44 45 44 43 40 39 39 42 47 53 55 54 43 38
37 43 38 32 31 34 37 41 44 49 69 73 79 57 40 48 50 46 43 47 49 50 52 56 52 46 43 41 39 42 45 44 43 41 39 38 39 41 44 44 47 50 44 40
37 50 56 34 27 25 27 36 48 74 51 81 81 62 42 46 46 47 43 47 50 54 59 58 53 49 45 41 39 43 43 42 40 38 38 37 38 41 41 42 45 49 47 47
40 49 70 53 46 39 29 31 53 61 71 59 71 57 39 44 52 50 54 54 58 60 60 60 54 51 48 42 38 37 39 39 39 36 38 38 38 38 41 45 48 56 57 60
50 50 51 63 46 37 28 29 47 55 79 69 71 48 45 58 60 60 63 66 66 64 61 58 58 52 47 44 34 33 34 39 41 43 42 38 42 45 48 52 61 62 70 92
52 57 52 46 40 35 31 33 35 40 48 61 51 57 57 63 64 63 67 66 65 64 61 59 60 56 49 41 34 32 33 32 31 33 38 48 51 50 55 55 62 70 87 82
61 71 50 42 59 59 41 44 51 49 40 40 55 73 60 60 67 71 72 71 71 68 64 61 55 48 45 38 38 35 34 31 30 35 46 49 54 52 63 69 76 83 97 100
68 76 73 57 78 66 65 50 43 34 41 39 51 66 63 69 74 80 80 72 68 67 66 61 52 48 42 35 33 32 31 29 30 46 53 57 57 63 65 65 72 83 93 87
72 89 92 72 71 42 41 43 37 62 67 64 66 68 65 68 75 78 70 64 63 63 59 57 41 34 31 30 29 29 29 30 38 45 56 60 60 61 63 73 74 90 72 80
65 85 98 70 88 50 43 45 46 46 74 67 73 73 68 68 76 76 63 59 56 60 49 29 26 28 28 28 28 30 31 33 42 54 56 59 65 73 75 73 82 85 92 96
79 80 76 97 63 57 48 44 40 43 74 76 78 80 77 71 86 76 64 63 58 30 27 26 27 28 29 28 31 34 36 43 54 58 60 63 68 70 83 99 99 99 94 75
97 94 96 99 92 79 55 46 40 70 65 80 79 82 80 76 74 66 68 47 32 27 28 28 30 31 31 33 35 37 44 53 58 59 60 64 66 69 82 88 99 94 89 79
80 93 97 92 92 82 53 50 60 64 82 80 82 80 79 75 69 62 40 38 30 31 32 32 32 33 34 37 40 49 54 58 59 62 67 71 70 71 80 90 89 83 70 68
62 68 80 76 77 56 58 54 64 79 85 81 78 78 71 72 53 38 40 37 36 35 32 34 37 39 42 45 55 59 63 64 65 70 74 74 77 82 89 85 75 75 72 77
56 65 84 73 56 64 70 77 74 73 76 74 72 72 65 50 46 42 39 38 37 36 39 42 43 47 51 58 66 69 71 71 73 77 77 76 75 75 85 74 72 74 79 77
60 63 66 76 76 84 79 77 80 77 73 71 68 51 46 47 42 40 39 40 42 45 46 48 52 57 60 66 70 69 68 73 80 83 85 82 75 83 92 87 82 82 77 82
73 66 82 84 65 71 80 85 78 78 74 68 48 47 38 38 42 37 42 46 50 51 50 56 60 64 76 75 76 82 85 80 92 94 92 80 73 78 82 86 81 74 74 76

GFSCGP_925_rhum_036.txt.gz
RH
25 25 23 19 18 17 18 19 20 20 19 35 57 63 67 69 74 80 79 78 76 75 70 75 87 89 88 87 84 81 80 91 68 58 51 49 49 47 46 46 45 44 45 47
28 26 20 28 26 29 25 26 25 24 28 38 52 59 64 68 73 77 78 76 74 72 72 72 67 60 61 65 68 65 60 53 48 43 42 40 42 45 44 46 47 49 51 52
27 21 24 29 34 34 36 30 29 27 29 34 38 48 60 57 66 68 69 68 66 70 76 80 70 60 48 43 41 40 39 37 35 34 37 39 42 46 48 51 52 53 54 53
28 29 28 29 29 33 33 29 27 29 28 37 30 45 48 58 66 67 70 72 70 68 72 72 64 53 42 41 39 38 38 38 40 42 42 43 44 48 54 57 56 55 53 49
28 29 30 31 28 26 30 32 33 33 42 37 38 51 55 64 71 71 70 72 71 72 74 69 59 51 50 46 44 43 43 44 46 47 46 46 48 53 59 57 56 53 48 44
31 27 27 27 29 27 29 41 50 55 53 62 46 46 54 68 64 66 63 68 68 67 61 60 56 52 53 51 48 50 51 51 50 49 50 52 53 57 58 56 50 44 38 38
37 34 31 28 31 30 41 50 70 71 75 70 50 55 53 46 53 59 65 67 66 64 65 67 64 61 56 52 54 53 52 53 53 53 53 55 56 55 50 45 42 39 39 41
48 46 32 28 30 35 42 44 73 58 79 68 52 64 57 55 48 55 58 62 63 62 65 64 61 60 62 60 56 53 53 53 53 52 52 50 46 44 43 42 42 43 45 48
45 39 30 27 30 30 39 47 42 75 73 76 66 57 54 59 61 60 60 59 62 59 58 63 63 60 58 52 48 50 52 53 54 50 45 44 44 43 42 44 45 45 46 49
42 45 32 27 28 32 29 41 56 71 57 56 61 64 73 64 65 61 60 62 62 65 69 69 63 59 56 49 47 46 48 52 49 45 45 43 41 43 45 46 45 49 51 54
39 41 39 34 34 38 40 45 56 60 73 73 79 67 54 60 59 61 61 64 66 71 68 64 57 50 46 42 39 43 49 46 44 45 44 43 44 46 47 49 54 60 65 62
42 51 56 36 32 37 33 40 45 58 43 84 81 64 46 60 59 61 62 65 70 69 67 62 55 50 46 43 40 46 47 46 51 48 45 46 44 44 49 45 42 37 38 40
42 51 64 48 39 37 34 48 58 60 71 67 74 55 56 62 64 60 70 73 72 70 66 62 56 53 51 47 41 43 42 47 39 34 32 33 41 43 38 39 42 46 50 51
51 57 50 56 37 44 34 42 52 52 77 67 69 44 52 61 68 73 75 75 74 70 64 62 60 57 51 52 44 39 35 33 31 30 32 38 41 42 41 44 49 49 54 72
48 54 52 51 54 42 33 35 54 52 50 50 44 57 45 65 72 75 76 78 74 69 63 61 60 56 50 44 39 34 31 30 28 30 38 43 48 45 47 50 52 54 53 73
63 70 47 51 64 63 49 42 44 52 46 58 53 58 60 68 77 80 80 78 74 67 62 60 54 50 42 36 32 30 28 29 30 33 46 53 50 50 53 60 62 69 76 74
65 73 65 62 71 53 50 48 49 48 53 51 64 48 77 77 80 83 85 80 72 68 64 61 48 41 36 32 29 29 29 32 34 41 50 49 54 57 61 68 69 91 88 86
72 74 76 60 64 38 29 41 45 49 47 55 56 63 71 71 76 77 79 79 70 69 65 54 42 36 34 30 30 31 33 35 37 44 48 55 59 63 67 70 79 84 84 93
68 79 92 66 69 41 26 51 59 54 48 67 63 71 74 84 76 75 80 68 65 67 60 37 32 33 31 32 34 35 36 37 42 53 57 60 64 66 67 69 88 99 99 99
71 70 72 93 56 45 36 45 46 42 70 59 68 77 85 82 90 76 79 74 66 57 33 30 31 32 34 36 39 40 41 47 54 59 63 65 68 70 68 80 100 99 94 100
98 98 82 100 76 65 46 45 44 61 54 74 74 78 89 84 77 67 82 72 46 31 32 32 34 36 40 42 43 45 51 57 63 66 67 71 73 74 74 91 98 95 100 98
91 97 98 95 90 70 50 49 58 58 60 72 79 78 77 75 75 79 60 42 37 38 36 36 39 42 46 48 52 56 62 68 70 70 71 76 73 77 75 93 93 90 86 80
71 67 78 74 75 53 51 55 54 63 65 79 80 81 80 78 78 58 50 48 42 36 39 43 46 48 51 54 62 69 73 76 78 78 71 71 74 80 78 84 81 92 94 85
69 63 76 66 46 63 61 56 72 75 71 75 78 79 77 75 63 51 44 45 42 43 46 48 50 57 57 67 74 74 72 73 85 87 82 88 89 90 76 87 75 86 88 81
69 69 68 76 68 68 71 80 69 77 76 78 78 78 76 64 49 43 46 45 46 49 49 51 61 63 66 75 74 76 81 86 94 88 78 87 100 97 78 81 82 94 92 86
75 69 80 75 54 56 56 59 78 82 84 81 66 58 49 47 53 47 48 48 52 52 52 59 63 68 72 73 73 73 75 82 86 98 95 92 98 97 83 82 78 79 88 84

GFSCGP_925_rhum_039.txt.gz
RH
25 22 21 18 17 16 18 19 20 21 24 41 54 57 59 61 61 64 64 63 66 68 76 87 94 99 99 98 92 87 90 84 80 75 60 53 52 50 48 47 46 46 48 50
24 25 21 29 24 24 23 24 27 28 30 39 48 57 61 62 66 64 64 66 68 72 73 81 86 90 93 99 96 83 72 67 65 55 51 48 47 48 46 47 49 51 52 52
28 23 25 30 31 30 33 30 30 27 32 36 37 42 56 61 64 65 64 63 65 64 66 69 71 76 80 80 75 64 50 54 54 52 46 47 48 49 51 53 53 54 53 47
30 29 26 28 31 30 35 30 29 27 26 29 32 26 46 61 68 67 65 63 62 62 63 57 56 56 58 53 48 49 53 52 49 49 49 47 50 54 60 58 55 54 45 37
31 30 30 31 30 27 36 34 33 33 36 33 34 31 42 63 73 69 65 61 59 60 58 52 51 54 58 50 48 49 51 51 49 50 48 49 51 54 57 56 56 49 39 37
33 28 29 29 34 31 40 39 43 46 44 46 42 36 35 60 57 65 60 58 58 60 56 54 56 59 59 52 49 48 46 48 51 49 50 53 55 56 57 55 46 44 39 40
36 35 31 30 33 33 36 41 50 52 58 51 48 51 42 41 47 55 58 56 57 56 55 54 55 55 58 58 51 52 50 53 53 52 52 53 50 49 47 44 43 41 46 46
41 36 31 30 31 35 42 40 59 54 63 54 48 53 41 46 42 47 49 49 54 56 55 54 57 58 61 63 58 57 57 56 53 51 50 45 42 40 41 43 44 46 48 51
44 40 30 30 33 32 42 41 40 62 72 61 46 46 43 53 52 53 51 54 54 54 56 55 59 64 63 63 57 60 59 53 54 50 44 43 45 48 50 51 51 55 59 63
42 45 33 29 30 35 34 40 48 53 55 47 42 51 43 56 54 54 53 53 53 54 56 57 61 64 63 56 52 50 53 54 49 46 45 47 47 48 49 51 51 50 45 34
39 43 39 36 32 38 40 45 52 49 56 46 53 34 47 48 50 53 50 51 53 56 58 56 55 56 53 46 46 51 54 48 48 49 48 46 46 41 42 44 34 32 34 40
42 49 52 38 34 36 35 40 43 45 41 66 60 41 41 49 50 52 51 54 57 58 55 51 51 52 50 49 56 51 51 49 50 43 37 32 30 37 37 33 35 39 46 46
45 50 54 40 34 36 37 45 47 51 59 58 72 36 44 54 55 52 52 60 62 58 54 51 51 50 52 49 47 44 42 41 33 31 26 27 35 38 37 40 46 50 64 66
50 51 48 49 38 42 39 52 47 46 59 51 51 36 34 50 57 60 60 61 59 57 54 49 51 52 54 49 45 38 36 32 28 25 26 34 41 44 46 50 52 61 70 76
46 48 49 51 52 44 36 39 52 46 45 47 38 42 33 36 50 58 60 62 62 59 55 52 52 50 51 48 42 36 30 27 26 26 34 48 52 51 52 56 60 70 81 87
57 60 50 56 59 57 50 42 42 52 48 44 48 45 37 49 58 64 64 64 63 60 55 53 49 48 43 42 37 30 27 27 30 34 42 54 54 55 57 67 74 83 91 85
58 68 62 58 59 45 53 44 42 43 44 42 47 35 59 64 63 62 64 64 62 58 56 54 46 42 40 37 31 30 29 31 34 36 51 55 56 58 68 77 80 87 94 94
65 62 63 57 59 39 29 42 39 42 42 43 47 52 56 56 64 62 59 61 63 59 57 53 43 41 39 33 30 31 34 35 37 45 53 55 59 68 76 78 78 93 97 98
58 68 77 65 50 37 23 39 49 53 39 45 44 53 65 72 65 65 64 62 59 56 57 48 39 38 33 31 34 35 37 40 44 54 57 62 67 78 78 79 89 96 94 98
63 65 68 74 48 44 32 36 48 43 57 45 54 65 76 66 75 54 66 63 56 59 44 37 38 35 34 36 38 40 46 48 58 62 68 72 76 78 79 85 88 90 89 98
97 94 81 80 68 56 41 39 45 47 44 53 61 66 76 66 64 62 69 65 59 41 34 34 34 36 38 42 42 48 53 59 64 70 71 70 75 80 74 80 87 96 99 99
75 90 93 90 79 66 44 49 56 53 53 57 68 67 73 73 70 75 67 49 36 36 40 38 42 44 44 46 49 57 62 69 75 80 82 77 76 76 69 76 86 94 88 95
65 64 70 64 63 51 46 55 54 57 57 60 68 65 64 71 71 58 47 39 44 42 40 43 45 48 48 48 58 69 74 74 73 82 87 86 84 80 83 86 83 84 93 98
66 61 66 63 45 55 56 52 57 61 67 61 68 69 69 68 65 47 46 42 43 45 45 49 51 55 57 55 70 73 71 73 85 92 90 83 80 90 97 87 85 80 82 87
61 63 64 66 59 57 54 66 65 64 71 70 73 73 72 62 49 45 46 47 52 54 54 53 58 61 62 69 68 66 68 73 89 91 88 88 90 91 100 89 81 81 89 96
68 64 75 73 51 51 53 62 72 74 73 75 69 57 50 46 54 62 66 58 60 56 54 60 63 66 71 68 66 70 71 80 89 88 87 88 95 98 100 92 83 81 76 77

GFSCGP_925_rhum_042.txt.gz
RH
18 17 14 11 10 11 12 13 11 13 17 16 17 22 26 38 36 37 38 39 40 42 51 61 69 73 78 95 96 93 97 84 87 90 85 68 62 59 58 57 61 60 60 61
17 17 19 18 15 14 13 15 17 20 18 20 25 28 30 35 38 38 38 40 42 48 54 66 72 74 77 82 88 92 83 88 81 70 56 52 51 51 51 56 63 60 61 58
16 20 21 19 18 17 20 18 21 18 23 24 23 28 35 40 44 46 44 40 44 48 57 64 69 73 81 82 78 70 66 66 57 52 55 56 58 56 53 56 56 60 58 51
21 21 21 20 22 20 21 22 20 21 20 19 22 18 29 38 39 45 48 48 48 50 49 49 49 56 58 60 55 47 49 52 57 58 48 47 42 41 52 55 55 54 52 48
24 21 21 20 23 22 25 22 21 20 20 21 22 21 24 37 41 41 47 48 49 48 42 36 35 39 40 48 49 48 49 48 55 55 54 52 52 54 56 56 59 53 50 50
23 22 21 23 25 23 27 26 26 25 25 29 20 25 13 22 27 39 45 49 50 47 38 33 35 38 42 52 54 52 50 54 58 58 61 59 57 53 49 49 45 41 42 43
24 25 23 24 26 27 25 24 24 32 34 30 34 32 18 26 32 35 45 49 46 41 37 35 38 40 43 51 55 57 51 54 59 60 58 56 54 49 42 41 37 41 38 41
23 31 23 24 25 22 25 23 26 28 32 29 36 31 28 32 33 31 38 41 42 38 35 35 36 39 45 50 51 50 50 53 55 54 55 53 45 41 41 44 50 48 50 54
27 28 25 26 26 25 31 28 30 42 58 46 24 27 27 35 36 34 40 40 39 37 37 36 40 44 46 50 56 55 53 52 54 56 57 58 53 51 48 53 58 57 61 55
29 33 26 26 24 28 28 28 34 34 43 29 18 24 18 34 37 37 40 40 36 36 37 38 41 49 51 51 55 58 52 53 57 56 55 51 50 50 54 59 57 50 41 38
25 26 33 28 26 24 34 32 32 28 38 27 25 15 27 30 32 35 36 37 34 36 40 41 45 51 50 47 48 51 53 50 51 52 51 52 48 48 49 42 39 39 42 42
32 31 40 30 27 27 26 27 26 27 30 44 43 20 24 31 35 33 32 34 33 36 40 42 45 47 44 42 44 47 49 50 50 52 49 42 40 40 37 36 40 45 47 48
31 34 41 36 30 31 29 29 27 31 36 36 55 18 24 30 35 34 35 34 38 42 42 40 42 41 40 41 43 44 48 46 46 39 34 35 36 36 37 42 48 50 52 53
32 34 32 34 26 27 33 31 29 25 36 23 27 14 20 25 29 32 35 35 42 44 41 40 39 39 39 38 41 42 47 42 34 30 29 31 36 42 45 51 52 54 57 60
35 36 34 34 32 31 27 27 32 30 25 34 17 16 11 15 20 24 32 38 42 44 42 39 38 39 39 40 42 44 36 33 30 29 28 31 45 54 54 53 57 59 63 66
41 43 43 43 42 38 36 28 27 30 27 27 23 22 17 19 26 30 39 42 44 44 42 39 38 38 38 40 38 34 30 31 34 32 32 39 53 54 51 56 59 61 65 66
44 50 47 40 41 39 61 36 28 24 26 28 30 22 22 28 32 33 38 42 44 43 42 41 38 38 36 35 31 28 30 35 35 34 37 49 54 51 52 55 58 62 66 72
51 47 56 54 56 71 18 25 24 26 23 22 25 24 25 27 32 34 34 39 43 43 42 40 38 38 35 30 30 34 32 35 36 36 42 48 51 52 54 59 62 65 69 82
37 45 70 80 37 25 15 22 24 30 21 24 24 23 32 42 44 41 41 39 42 42 42 40 37 35 31 32 32 33 34 34 35 39 45 47 53 55 58 61 64 69 82 84
44 46 50 66 86 86 26 33 37 34 33 30 32 34 39 47 49 21 45 44 43 43 41 38 34 34 32 37 37 35 32 33 38 45 50 52 55 59 61 63 64 70 77 79
81 84 88 72 83 45 26 26 37 39 31 34 35 34 45 44 37 48 43 47 45 43 37 32 31 34 34 39 41 35 31 38 44 54 58 56 58 61 64 64 64 69 74 78
57 76 91 77 95 77 29 40 47 38 37 36 40 40 47 45 54 52 51 48 41 33 32 35 36 36 40 41 41 30 34 40 56 59 57 58 61 64 63 66 66 68 72 72
52 46 47 44 39 37 34 35 39 41 43 40 44 41 48 52 53 53 50 41 34 34 41 40 38 40 43 43 45 42 43 55 56 60 62 65 66 63 63 69 71 67 69 77
44 44 50 49 30 33 35 34 35 37 41 41 43 46 46 48 52 49 40 37 43 44 52 64 47 39 38 49 55 52 56 61 60 64 66 66 64 62 63 68 73 68 70 72
42 48 45 47 35 32 36 43 52 52 52 53 54 56 57 53 49 40 40 43 58 77 61 50 42 41 40 46 54 56 59 65 66 67 67 66 66 67 68 68 70 68 69 71
45 48 55 51 50 52 46 55 62 60 60 60 57 54 50 46 42 46 67 86 82 65 49 49 53 52 50 53 53 56 62 66 69 67 67 66 70 70 74 76 69 69 74 72

GFSCGP_925_rhum_045.txt.gz
RH
17 20 17 16 12 11 11 9 10 8 8 9 9 13 18 20 20 22 25 26 26 29 31 42 43 43 39 52 67 79 92 94 87 84 77 77 69 59 55 54 57 56 57 59
17 22 15 10 9 10 10 13 11 11 10 14 11 14 16 21 22 20 23 27 30 32 38 43 49 53 56 70 80 85 81 83 78 67 60 54 48 46 46 52 58 57 60 55
30 19 16 12 11 12 12 13 23 14 14 12 14 16 22 21 21 23 23 23 26 32 39 47 52 58 66 74 80 75 69 61 53 45 44 45 46 49 48 52 52 56 55 49
25 24 15 12 13 13 17 16 14 15 18 18 15 18 19 23 27 31 32 30 31 34 40 45 50 67 73 71 64 54 48 44 43 43 41 42 39 42 45 45 46 52 52 48
18 16 14 13 17 15 23 17 16 14 14 16 18 15 23 21 25 30 32 34 34 38 41 42 45 48 48 50 44 39 40 40 45 46 42 46 43 45 45 47 53 52 49 45
41 16 16 18 17 16 19 19 18 16 16 25 16 17 14 20 19 23 29 33 37 38 37 32 35 37 40 44 42 42 41 43 47 50 51 48 50 46 44 46 45 40 36 34
18 17 19 17 19 19 18 20 33 31 25 28 21 21 14 14 21 18 30 35 38 37 33 29 29 30 37 43 46 46 43 45 50 53 54 52 50 47 42 41 37 34 34 34
22 28 18 17 19 20 19 18 24 27 25 21 22 17 22 21 24 23 28 33 38 38 32 29 29 30 36 44 47 46 44 46 52 53 50 49 45 38 39 37 41 42 42 43
24 22 19 19 18 17 21 21 21 27 47 36 16 15 25 24 25 26 30 34 39 36 32 29 30 32 36 42 45 47 44 46 49 49 49 47 46 42 42 43 46 46 49 44
18 24 20 21 20 21 21 20 26 24 36 27 13 13 17 23 24 26 30 35 37 33 30 29 30 34 38 42 46 50 47 47 47 49 46 44 44 43 44 48 48 45 39 36
15 19 26 22 21 16 25 24 21 21 25 31 22 16 14 17 20 25 27 32 33 32 30 30 31 36 41 44 48 53 47 47 44 44 48 47 44 43 45 41 35 34 38 38
19 20 26 25 19 19 20 20 21 30 25 28 38 21 15 18 18 21 23 28 29 29 29 30 32 38 44 45 45 47 45 41 43 46 48 47 44 39 36 33 33 38 41 43
24 22 28 28 25 24 24 20 19 20 27 29 46 24 16 18 20 20 21 23 27 28 28 31 35 40 42 41 42 43 42 42 49 50 47 36 35 34 32 32 38 41 44 46
33 20 24 31 22 21 29 23 20 23 36 27 20 16 13 17 17 16 19 19 23 27 30 33 36 37 38 38 40 40 42 50 49 38 29 28 31 32 34 38 43 44 47 50
29 32 24 22 23 24 22 21 20 25 24 30 20 13 8 8 10 13 15 18 21 30 34 34 35 35 36 37 38 38 45 40 39 29 27 26 29 38 41 44 45 49 52 53
30 34 34 38 26 29 28 23 21 19 19 16 14 15 11 14 12 15 16 20 23 29 33 33 33 34 36 35 37 41 39 35 29 29 29 27 33 39 42 43 48 47 50 53
37 39 42 41 32 30 54 32 22 18 17 19 25 17 16 18 18 18 19 23 25 28 32 34 33 34 36 36 37 34 33 30 32 31 28 29 38 40 40 42 44 49 53 54
43 44 49 50 60 74 17 16 16 21 18 14 15 15 14 16 20 21 21 23 27 29 33 34 35 36 35 34 31 31 31 36 34 29 28 31 38 40 42 43 47 51 52 58
30 41 56 78 35 24 19 14 19 20 19 14 19 15 15 24 29 26 25 25 27 31 33 35 36 36 34 30 29 37 34 31 29 28 30 33 36 41 43 45 48 52 55 69
32 36 43 54 82 87 29 24 25 24 26 18 19 22 22 28 35 27 30 30 32 35 36 36 36 34 30 32 34 38 36 29 30 28 35 37 40 43 45 49 52 54 56 65
74 76 77 64 76 47 22 22 27 35 37 24 25 23 26 27 39 38 32 37 36 37 36 35 32 30 30 40 52 45 30 25 29 38 42 43 43 44 47 52 54 53 58 70
58 73 90 71 93 79 21 28 36 38 25 30 28 29 37 36 42 43 38 39 38 37 34 31 30 34 50 48 38 26 23 31 36 44 45 44 45 48 52 55 55 57 64 70
44 38 44 40 39 30 23 24 28 28 32 32 34 34 34 40 40 42 43 41 36 31 31 37 44 62 52 44 42 39 36 40 44 46 46 48 52 54 54 52 52 62 69 68
32 34 41 37 24 24 26 29 32 35 40 38 39 40 40 42 40 44 40 33 32 39 52 67 68 57 40 36 42 45 49 53 52 51 52 54 56 55 58 56 54 64 68 71
34 36 33 36 26 28 36 43 50 48 45 44 44 47 49 46 46 39 36 38 56 75 70 53 42 46 49 40 44 48 47 53 54 54 56 57 59 60 59 58 59 66 69 71
32 34 50 48 48 52 46 55 52 52 52 50 47 44 41 40 39 47 71 80 78 60 65 72 56 46 42 42 44 45 45 49 53 57 58 60 64 63 62 62 67 67 71 73

GFSCGP_925_rhum_048.txt.gz
RH
19 23 22 18 16 13 14 14 16 12 11 11 11 15 13 16 19 25 23 22 22 22 26 32 31 31 40 62 71 76 91 84 81 94 81 74 68 65 56 57 58 59 60 61
21 30 21 15 14 14 12 16 16 9 8 9 10 11 14 14 18 21 24 26 26 29 32 39 39 40 41 62 78 87 89 93 87 78 67 70 62 55 54 55 58 57 59 55
26 41 34 21 18 13 12 23 28 22 16 9 12 12 16 16 15 16 20 24 25 29 36 40 44 48 57 73 84 82 80 81 78 60 59 55 50 50 50 56 60 59 57 51
39 29 32 24 13 12 28 26 19 24 35 18 22 32 28 18 20 19 20 23 27 29 34 40 46 62 70 75 75 78 77 73 59 46 46 46 47 49 47 50 53 57 53 50
41 32 28 21 16 16 30 28 25 14 16 20 29 35 33 27 23 22 26 25 26 29 33 41 60 66 71 74 74 72 67 50 44 42 42 44 45 43 47 46 53 56 53 50
30 32 29 23 16 14 22 24 17 17 24 35 39 35 33 31 32 25 25 28 29 32 38 41 54 63 67 70 63 47 42 40 45 45 44 45 46 45 45 47 50 48 46 39
24 17 15 16 16 15 16 19 37 79 73 41 14 21 18 32 22 28 26 31 34 38 41 41 43 44 47 46 43 42 40 44 47 49 51 51 52 49 45 43 42 37 36 37
32 33 19 15 15 45 35 23 66 58 62 39 29 21 25 21 18 20 25 29 36 39 39 36 37 37 42 45 45 43 42 44 48 52 54 52 51 46 42 38 39 42 42 45
25 32 32 18 13 25 30 24 20 24 49 58 21 11 24 21 22 23 27 31 39 39 36 32 32 34 39 44 47 46 44 46 51 52 51 50 44 42 40 41 44 45 47 47
34 61 46 24 17 16 18 16 28 25 39 38 18 16 34 24 23 23 28 34 40 38 36 32 31 33 37 43 46 48 45 48 50 50 50 48 46 44 45 45 48 48 42 38
30 47 31 20 20 15 24 25 18 16 28 47 50 25 16 17 19 22 23 32 37 38 36 33 31 33 35 41 44 50 48 48 48 50 47 45 45 44 52 48 40 36 36 40
17 20 32 24 16 15 18 20 19 54 34 38 53 38 15 17 19 20 21 27 32 35 33 31 30 34 37 43 49 51 51 47 47 45 49 46 52 52 43 38 34 35 40 42
21 27 39 27 20 20 23 17 16 20 33 39 70 35 16 16 16 16 18 22 28 32 31 31 31 38 41 43 45 49 48 46 44 48 51 51 48 37 37 33 34 40 42 44
33 25 25 37 22 20 26 23 17 22 60 43 39 20 14 16 18 16 20 20 22 29 28 29 32 37 41 43 43 44 45 44 49 51 49 36 32 32 33 35 40 44 45 49
27 28 20 17 17 18 23 22 19 20 23 37 32 20 14 11 14 13 15 18 18 19 25 27 34 40 39 40 40 42 44 49 49 41 37 29 28 32 39 41 44 47 49 51
29 37 35 36 27 23 28 22 20 19 19 17 19 19 13 14 16 17 17 15 16 19 23 30 32 35 36 38 40 40 43 44 42 32 31 35 36 34 39 43 44 45 47 50
34 47 53 57 35 35 52 33 24 20 18 19 26 21 15 15 15 18 18 18 21 22 23 30 32 34 36 36 38 40 40 38 32 37 44 36 31 39 40 45 44 43 48 52
39 48 68 72 62 68 25 15 14 18 15 13 13 15 14 22 22 20 19 22 25 24 26 29 33 34 36 37 38 36 34 33 41 46 33 28 32 39 43 41 43 44 48 53
31 54 74 94 54 32 23 16 19 20 22 19 19 18 17 22 24 30 24 25 26 29 30 32 34 36 35 35 32 33 38 40 37 30 29 33 37 43 40 42 44 48 52 55
28 43 70 69 80 86 32 22 19 19 35 20 19 22 23 22 48 45 31 28 26 29 32 36 36 35 34 31 36 35 40 38 37 30 35 39 47 45 44 43 47 52 54 54
77 87 90 76 87 62 24 22 23 41 53 30 27 27 33 34 49 42 36 34 33 34 35 35 35 32 38 49 49 46 47 37 34 39 50 53 52 44 43 45 50 54 55 60
76 85 96 81 98 90 21 24 40 44 32 32 32 34 40 40 41 43 39 38 38 34 32 32 33 46 49 43 42 39 45 47 52 51 54 50 48 47 49 52 55 54 56 64
51 46 62 59 64 35 23 30 31 32 36 39 40 36 37 41 38 38 41 40 33 30 40 51 55 58 61 57 45 39 44 45 52 57 53 48 51 53 55 55 56 55 58 67
31 32 49 43 24 25 28 36 42 41 44 40 41 46 46 48 44 44 39 32 38 54 64 66 62 58 50 44 58 64 53 57 52 51 54 55 54 55 57 59 59 56 59 67
37 35 34 36 26 35 44 54 52 48 48 47 45 44 45 45 43 37 50 63 68 66 59 54 58 68 66 65 52 44 44 47 52 52 52 55 58 60 64 63 60 59 61 68
33 37 62 62 53 52 61 50 47 49 49 45 45 55 54 55 64 69 72 68 57 66 74 85 74 58 44 40 40 41 42 42 46 52 57 61 63 65 68 66 63 68 69 69